Columbus, MS

10:39 AM CST on February 06, 2016 (GMT -0600)
Columbus Air Force Base

Weather History for KCBM - April, 2012

Change the Weather History Date:

Wednesday, April 18, 2012

  Actual Average Record
Temperature  
Mean Temperature 62 °F -  
Max Temperature 74 °F 72 °F 91 °F (2006)
Min Temperature 51 °F 51 °F 35 °F (1997)
Degree Days  
Heating Degree Days 2    
Growing Degree Days 12 (Base 50)    
Moisture  
Dew Point 51 °F    
Average Humidity 73    
Maximum Humidity 99    
Minimum Humidity 41    
Precipitation  
Precipitation 0.00 in - - ()
Sea Level Pressure  
Sea Level Pressure 30.09 in    
Wind  
Wind Speed 7 mph (NNW)    
Max Wind Speed 14 mph    
Max Gust Speed 23 mph    
Visibility 10 miles    
Events      
Averages and records for this station are not official NWS values.
T = Trace of Precipitation, MM = Missing Value Source: NWS Daily Summary

Daily Weather History Graph

Daily Weather History Graph

Search for Another Location

Airport or City:

Trip Planner

Search our weather history database for the weather conditions in past years. The results will help you decide how hot, cold, wet, or windy it might be!

Date:

Astronomy

Apr. 18, 2012 Rise Set
Actual Time 6:19 AM CDT 7:27 PM CDT
Civil Twilight 5:53 AM CDT 7:53 PM CDT
Nautical Twilight 5:22 AM CDT 8:24 PM CDT
Astronomical Twilight 4:50 AM CDT 8:55 PM CDT
Moon 4:38 AM CDT (4/18) 5:22 PM CDT (4/18)
Length of Visible Light 14h 00m
Length of Day
13h 08m
Waning Crescent, 6% of the Moon is Illuminated
Apr 18
Waning Crescent
Apr 21
New
Apr 29
First Quarter
May 5
Full
May 12
Last Quarter

Hourly Weather History & Observations

Time (CDT) Temp. Dew Point Humidity Pressure Visibility Wind Dir Wind Speed Gust Speed Precip Events Conditions
12:55 AM 55.2 °F 52.0 °F 89% 30.15 in 10.0 mi North 10.4 mph - N/A   Overcast
1:55 AM 54.0 °F 51.1 °F 90% 30.13 in 10.0 mi North 8.1 mph - N/A   Partly Cloudy
2:55 AM 52.7 °F 51.1 °F 94% 30.13 in 10.0 mi NNW 5.8 mph - N/A   Mostly Cloudy
3:55 AM 52.2 °F 51.1 °F 96% 30.12 in 10.0 mi North 6.9 mph - N/A   Clear
4:55 AM 51.6 °F 50.5 °F 96% 30.11 in 10.0 mi NNW 6.9 mph - N/A   Clear
5:55 AM 51.3 °F 50.7 °F 98% 30.13 in 10.0 mi NNW 5.8 mph - N/A   Clear
6:55 AM 52.0 °F 51.6 °F 99% 30.14 in 10.0 mi Calm Calm - N/A   Clear
7:55 AM 54.9 °F 52.2 °F 91% 30.14 in 10.0 mi North 9.2 mph - N/A   Clear
8:55 AM 59.0 °F 52.0 °F 78% 30.14 in 10.0 mi North 6.9 mph - N/A   Clear
9:55 AM 62.2 °F 52.7 °F 71% 30.14 in 10.0 mi NNW 9.2 mph - N/A   Clear
10:55 AM 64.9 °F 53.1 °F 65% 30.13 in 10.0 mi North 8.1 mph - N/A   Clear
11:55 AM 68.4 °F 53.1 °F 58% 30.12 in 10.0 mi North 6.9 mph - N/A   Clear
12:55 PM 71.2 °F 52.3 °F 51% 30.09 in 10.0 mi North 10.4 mph 16.1 mph N/A   Partly Cloudy
1:55 PM 72.9 °F 53.2 °F 50% 30.08 in 10.0 mi NNW 12.7 mph 23.0 mph N/A   Clear
2:55 PM 73.8 °F 51.6 °F 46% 30.06 in 10.0 mi NNW 13.8 mph - N/A   Clear
3:55 PM 74.3 °F 50.0 °F 42% 30.04 in 10.0 mi North 10.4 mph 23.0 mph N/A   Clear
4:55 PM 73.8 °F 48.9 °F 41% 30.04 in 10.0 mi NNW 11.5 mph - N/A   Clear
5:55 PM 73.2 °F 50.5 °F 45% 30.03 in 10.0 mi North 9.2 mph - N/A   Clear
6:55 PM 69.8 °F 50.7 °F 51% 30.03 in 10.0 mi North 6.9 mph - N/A   Clear
7:55 PM 64.4 °F 52.7 °F 66% 30.04 in 10.0 mi NNW 3.5 mph - N/A   Clear
8:55 PM 59.7 °F 52.3 °F 77% 30.05 in 10.0 mi Calm Calm - N/A   Clear
9:55 PM 59.7 °F 50.9 °F 73% 30.06 in 10.0 mi Calm Calm - N/A   Clear
10:55 PM 55.0 °F 51.1 °F 86% 30.06 in 10.0 mi Calm Calm - N/A   Clear
11:55 PM 53.6 °F 50.5 °F 89% 30.05 in 10.0 mi Calm Calm - N/A   Clear